GFSGL_prec_pwat_000.txt.gz
Precipitable_Water
0.49 0.47 0.44 0.40 0.36 0.35 0.29 0.26 0.26 0.29 0.29 0.29 0.29 0.30 0.32 0.33 0.33 0.33 0.35 0.40 0.47 0.56 0.62 0.66 0.68 0.72 0.68 0.71 0.70 0.82 0.86 0.85 0.79 0.96 1.02 1.17 1.07 1.01 1.28 1.39 1.26 0.95 0.91
0.49 0.47 0.43 0.38 0.36 0.31 0.26 0.26 0.27 0.27 0.29 0.28 0.29 0.30 0.31 0.33 0.34 0.33 0.35 0.39 0.50 0.56 0.63 0.68 0.69 0.73 0.73 0.75 0.82 0.83 0.85 0.90 0.92 0.88 0.98 1.05 1.11 1.22 1.22 1.29 1.17 0.90 0.84
0.49 0.45 0.41 0.36 0.33 0.27 0.25 0.26 0.27 0.27 0.28 0.28 0.28 0.30 0.31 0.34 0.36 0.36 0.38 0.41 0.51 0.59 0.69 0.69 0.74 0.75 0.76 0.79 0.81 0.85 0.89 0.96 1.01 0.97 0.94 1.08 1.14 1.15 1.20 1.26 1.10 0.79 0.81
0.48 0.44 0.38 0.35 0.29 0.26 0.26 0.26 0.25 0.27 0.28 0.27 0.28 0.30 0.33 0.35 0.37 0.37 0.39 0.42 0.51 0.61 0.70 0.73 0.75 0.78 0.81 0.86 0.86 0.85 0.91 0.99 0.98 1.00 1.01 1.12 1.07 1.11 1.23 1.12 0.97 0.72 0.65
0.45 0.41 0.37 0.33 0.29 0.27 0.25 0.25 0.25 0.28 0.28 0.28 0.28 0.32 0.35 0.36 0.36 0.37 0.41 0.45 0.52 0.58 0.68 0.72 0.79 0.83 0.86 0.92 0.96 0.90 0.94 0.98 0.98 0.99 1.00 1.11 0.99 1.17 1.14 1.15 0.94 0.69 0.67
0.45 0.39 0.36 0.31 0.27 0.25 0.25 0.25 0.26 0.26 0.28 0.29 0.31 0.33 0.34 0.37 0.37 0.39 0.43 0.45 0.48 0.54 0.65 0.72 0.80 0.84 0.86 0.91 1.03 1.00 1.01 0.97 0.95 0.97 1.01 1.05 1.06 1.20 1.22 1.15 0.93 0.66 0.54
0.42 0.38 0.32 0.28 0.26 0.25 0.26 0.25 0.24 0.25 0.27 0.29 0.32 0.35 0.37 0.37 0.37 0.41 0.45 0.47 0.46 0.51 0.65 0.72 0.79 0.85 0.90 0.94 1.02 1.08 1.10 1.09 1.08 1.05 1.07 1.16 1.13 1.25 1.25 1.13 0.93 0.66 0.57
0.39 0.35 0.30 0.27 0.26 0.25 0.24 0.23 0.24 0.26 0.27 0.30 0.33 0.38 0.40 0.39 0.39 0.41 0.45 0.46 0.45 0.52 0.65 0.75 0.79 0.81 0.89 0.93 0.97 1.02 1.04 1.08 1.13 1.13 1.14 1.23 1.29 1.34 1.30 1.16 0.91 0.75 0.75
0.38 0.33 0.29 0.28 0.26 0.25 0.23 0.23 0.25 0.27 0.28 0.30 0.36 0.41 0.41 0.40 0.41 0.41 0.45 0.44 0.46 0.51 0.67 0.77 0.81 0.83 0.91 0.95 0.96 0.95 0.98 1.03 1.20 1.17 1.16 1.29 1.36 1.42 1.37 1.13 0.90 0.79 0.64
0.37 0.32 0.30 0.29 0.26 0.24 0.24 0.24 0.27 0.28 0.29 0.32 0.40 0.44 0.43 0.39 0.39 0.41 0.44 0.45 0.44 0.52 0.65 0.73 0.82 0.86 0.91 0.94 0.95 0.97 0.97 0.99 1.09 1.11 1.15 1.28 1.42 1.45 1.36 1.11 0.96 0.72 0.62
0.38 0.33 0.31 0.29 0.27 0.26 0.26 0.26 0.28 0.28 0.31 0.35 0.41 0.42 0.42 0.40 0.36 0.39 0.46 0.46 0.47 0.54 0.59 0.69 0.81 0.87 0.92 0.99 1.07 1.08 1.04 1.10 1.06 1.08 1.10 1.26 1.39 1.41 1.26 1.11 0.96 0.75 0.62
0.36 0.32 0.30 0.28 0.28 0.27 0.26 0.26 0.27 0.28 0.32 0.36 0.39 0.41 0.40 0.38 0.39 0.39 0.44 0.47 0.51 0.49 0.55 0.73 0.81 0.88 0.96 1.04 1.10 1.16 1.15 1.13 1.05 1.07 1.19 1.28 1.32 1.32 1.24 1.13 0.99 0.85 0.69
0.34 0.31 0.29 0.29 0.28 0.28 0.26 0.26 0.27 0.30 0.34 0.38 0.39 0.40 0.41 0.42 0.40 0.41 0.42 0.44 0.45 0.46 0.61 0.76 0.83 0.89 0.95 1.02 1.07 1.14 1.18 1.20 1.12 1.12 1.19 1.33 1.33 1.36 1.29 1.17 1.05 0.91 0.79
0.32 0.31 0.30 0.29 0.27 0.27 0.28 0.28 0.29 0.32 0.37 0.40 0.39 0.40 0.41 0.40 0.39 0.40 0.41 0.43 0.44 0.44 0.62 0.78 0.84 0.88 0.94 1.00 1.04 1.14 1.18 1.20 1.17 1.17 1.31 1.35 1.40 1.37 1.23 1.13 0.96 0.86 0.77
0.32 0.31 0.29 0.28 0.27 0.27 0.28 0.29 0.32 0.39 0.42 0.41 0.40 0.41 0.40 0.39 0.40 0.41 0.42 0.43 0.44 0.48 0.67 0.77 0.78 0.82 0.85 0.93 1.00 1.04 1.13 1.22 1.19 1.22 1.35 1.33 1.35 1.29 1.16 1.04 0.93 0.82 0.73
0.32 0.30 0.29 0.28 0.27 0.28 0.28 0.31 0.41 0.44 0.45 0.44 0.45 0.46 0.44 0.44 0.43 0.43 0.44 0.45 0.44 0.54 0.65 0.69 0.73 0.78 0.81 0.88 0.94 1.00 1.10 1.19 1.24 1.24 1.36 1.32 1.31 1.23 1.06 0.93 0.88 0.76 0.73
0.32 0.31 0.30 0.29 0.28 0.27 0.31 0.37 0.38 0.42 0.45 0.44 0.44 0.44 0.43 0.44 0.44 0.41 0.42 0.42 0.47 0.55 0.62 0.69 0.73 0.77 0.82 0.88 0.94 1.01 1.07 1.18 1.31 1.34 1.33 1.33 1.31 1.22 1.01 0.85 0.82 0.78 0.75
0.34 0.32 0.30 0.29 0.30 0.32 0.38 0.41 0.39 0.40 0.40 0.39 0.44 0.44 0.44 0.44 0.42 0.40 0.42 0.43 0.44 0.51 0.60 0.70 0.72 0.78 0.84 0.89 0.96 1.01 1.11 1.20 1.31 1.36 1.33 1.34 1.26 1.13 0.96 0.85 0.81 0.78 0.77
0.33 0.30 0.31 0.31 0.34 0.38 0.42 0.40 0.41 0.42 0.44 0.40 0.39 0.42 0.44 0.44 0.41 0.40 0.41 0.41 0.43 0.48 0.60 0.71 0.74 0.79 0.84 0.90 0.97 1.03 1.12 1.19 1.26 1.34 1.33 1.31 1.27 1.09 0.93 0.92 0.86 0.83 0.77
0.31 0.33 0.34 0.35 0.38 0.41 0.42 0.41 0.42 0.44 0.43 0.39 0.39 0.40 0.44 0.40 0.38 0.35 0.38 0.41 0.44 0.50 0.59 0.70 0.74 0.79 0.85 0.90 0.97 1.05 1.11 1.21 1.32 1.34 1.32 1.34 1.27 1.10 0.95 0.94 0.90 0.85 0.82
0.33 0.33 0.36 0.37 0.41 0.44 0.43 0.45 0.46 0.45 0.43 0.42 0.39 0.40 0.40 0.39 0.39 0.35 0.36 0.40 0.45 0.50 0.58 0.69 0.74 0.78 0.85 0.90 0.96 1.02 1.09 1.17 1.25 1.32 1.35 1.34 1.27 1.13 1.05 1.02 1.01 1.00 0.99
0.34 0.36 0.39 0.43 0.47 0.45 0.43 0.44 0.44 0.42 0.43 0.41 0.40 0.39 0.37 0.37 0.39 0.37 0.37 0.39 0.45 0.51 0.59 0.69 0.74 0.78 0.84 0.90 0.95 1.00 1.05 1.11 1.20 1.31 1.32 1.30 1.34 1.25 1.18 1.13 1.10 1.10 1.08
0.38 0.40 0.43 0.44 0.42 0.41 0.41 0.42 0.43 0.42 0.40 0.40 0.38 0.36 0.36 0.37 0.40 0.41 0.38 0.40 0.45 0.50 0.58 0.68 0.72 0.77 0.83 0.90 0.97 1.02 1.04 1.08 1.19 1.29 1.32 1.33 1.33 1.28 1.28 1.18 1.16 1.16 1.15
0.42 0.41 0.41 0.40 0.39 0.39 0.39 0.40 0.42 0.42 0.41 0.40 0.37 0.36 0.37 0.40 0.40 0.40 0.40 0.42 0.46 0.50 0.57 0.66 0.70 0.75 0.81 0.88 0.95 1.02 1.08 1.13 1.21 1.31 1.40 1.36 1.31 1.32 1.32 1.27 1.24 1.23 1.23
0.40 0.40 0.39 0.38 0.39 0.40 0.41 0.39 0.39 0.39 0.39 0.38 0.36 0.37 0.39 0.39 0.40 0.41 0.42 0.44 0.48 0.49 0.56 0.64 0.69 0.75 0.80 0.85 0.93 1.00 1.08 1.17 1.26 1.38 1.40 1.38 1.35 1.35 1.35 1.32 1.31 1.30 1.29
0.41 0.39 0.38 0.39 0.39 0.41 0.41 0.39 0.38 0.38 0.38 0.38 0.37 0.38 0.40 0.41 0.40 0.41 0.44 0.45 0.47 0.48 0.53 0.62 0.67 0.73 0.78 0.83 0.91 0.98 1.05 1.15 1.25 1.37 1.44 1.40 1.38 1.37 1.37 1.33 1.33 1.31 1.30

GFSGL_prec_pwat_003.txt.gz
Precipitable_Water
0.54 0.52 0.51 0.49 0.48 0.45 0.38 0.37 0.32 0.28 0.28 0.28 0.28 0.28 0.28 0.28 0.31 0.33 0.34 0.36 0.35 0.38 0.43 0.53 0.57 0.64 0.69 0.69 0.72 0.70 0.65 0.60 0.62 0.70 0.84 0.91 0.90 1.01 1.28 1.33 1.34 1.25 1.43
0.54 0.53 0.52 0.50 0.47 0.42 0.37 0.35 0.30 0.27 0.28 0.27 0.26 0.26 0.27 0.28 0.30 0.33 0.33 0.36 0.36 0.38 0.43 0.51 0.56 0.66 0.70 0.72 0.72 0.69 0.68 0.74 0.74 0.75 0.87 0.85 0.95 1.03 1.20 1.27 1.26 1.36 1.42
0.53 0.52 0.52 0.50 0.46 0.40 0.37 0.32 0.28 0.27 0.26 0.25 0.26 0.26 0.26 0.27 0.30 0.34 0.36 0.36 0.37 0.40 0.46 0.51 0.58 0.66 0.69 0.72 0.74 0.72 0.72 0.81 0.85 0.83 0.84 0.89 0.96 1.04 1.20 1.20 1.18 1.35 1.43
0.52 0.52 0.52 0.48 0.45 0.39 0.36 0.30 0.27 0.26 0.26 0.25 0.26 0.27 0.27 0.29 0.33 0.36 0.37 0.37 0.39 0.43 0.47 0.50 0.61 0.68 0.69 0.74 0.79 0.80 0.83 0.78 0.78 0.78 0.87 0.88 0.96 1.05 1.19 1.04 1.09 1.31 1.27
0.52 0.52 0.51 0.48 0.44 0.40 0.34 0.29 0.26 0.26 0.27 0.27 0.27 0.27 0.27 0.30 0.35 0.40 0.40 0.40 0.40 0.43 0.48 0.50 0.62 0.71 0.77 0.81 0.83 0.84 0.86 0.81 0.81 0.85 0.88 0.92 0.93 0.96 1.04 1.02 1.02 1.28 1.24
0.52 0.52 0.50 0.48 0.43 0.38 0.31 0.27 0.26 0.27 0.27 0.27 0.26 0.25 0.27 0.31 0.39 0.43 0.45 0.43 0.43 0.45 0.45 0.48 0.61 0.71 0.78 0.84 0.87 0.93 0.95 0.94 0.85 0.88 0.90 0.87 0.90 0.99 1.07 0.98 1.09 1.18 1.00
0.53 0.51 0.50 0.46 0.41 0.35 0.29 0.27 0.27 0.27 0.26 0.25 0.25 0.26 0.27 0.35 0.41 0.46 0.47 0.46 0.44 0.44 0.45 0.48 0.61 0.73 0.79 0.83 0.90 0.95 1.01 1.02 0.96 0.97 0.92 0.96 0.95 1.07 1.06 1.03 1.09 1.17 1.02
0.52 0.51 0.49 0.44 0.39 0.32 0.29 0.28 0.27 0.27 0.25 0.25 0.24 0.26 0.30 0.39 0.43 0.45 0.47 0.46 0.44 0.44 0.46 0.51 0.65 0.73 0.78 0.84 0.86 0.89 0.95 1.03 1.07 1.04 1.04 1.06 1.06 1.10 1.17 1.05 1.14 1.21 1.06
0.52 0.51 0.47 0.42 0.35 0.31 0.29 0.28 0.26 0.26 0.25 0.25 0.25 0.26 0.34 0.40 0.42 0.44 0.44 0.40 0.41 0.45 0.48 0.55 0.70 0.72 0.78 0.88 0.87 0.87 0.91 0.97 1.12 1.16 1.12 1.12 1.15 1.21 1.22 1.20 1.19 1.12 0.88
0.53 0.49 0.43 0.39 0.35 0.32 0.30 0.28 0.27 0.27 0.26 0.26 0.25 0.30 0.38 0.40 0.42 0.40 0.41 0.41 0.38 0.41 0.47 0.54 0.64 0.72 0.82 0.87 0.88 0.90 0.90 0.97 1.05 1.09 1.16 1.17 1.16 1.25 1.27 1.26 1.29 1.11 0.87
0.53 0.47 0.43 0.40 0.36 0.34 0.31 0.28 0.28 0.27 0.27 0.26 0.28 0.34 0.39 0.40 0.40 0.42 0.44 0.42 0.41 0.43 0.46 0.46 0.58 0.77 0.83 0.88 0.92 0.95 0.96 1.05 1.05 1.07 1.12 1.18 1.13 1.17 1.30 1.37 1.34 1.15 0.87
0.51 0.46 0.43 0.40 0.37 0.34 0.31 0.28 0.27 0.26 0.26 0.27 0.31 0.36 0.40 0.40 0.37 0.43 0.43 0.43 0.44 0.43 0.43 0.45 0.61 0.79 0.84 0.88 0.92 0.98 1.04 1.05 1.05 1.04 1.07 1.12 1.12 1.14 1.26 1.33 1.34 1.20 1.06
0.49 0.46 0.43 0.39 0.36 0.33 0.29 0.27 0.26 0.27 0.27 0.29 0.35 0.38 0.37 0.36 0.40 0.42 0.41 0.41 0.42 0.44 0.44 0.49 0.65 0.79 0.83 0.87 0.92 0.98 1.02 1.08 1.03 0.99 1.04 1.10 1.15 1.22 1.32 1.38 1.34 1.21 1.07
0.48 0.45 0.41 0.37 0.34 0.32 0.30 0.28 0.27 0.27 0.29 0.34 0.37 0.36 0.33 0.35 0.38 0.41 0.41 0.42 0.44 0.44 0.44 0.50 0.69 0.78 0.81 0.86 0.91 0.98 1.05 1.10 1.08 0.96 1.01 1.18 1.31 1.26 1.31 1.38 1.20 1.07 0.97
0.47 0.44 0.39 0.36 0.33 0.30 0.29 0.28 0.28 0.31 0.37 0.39 0.39 0.38 0.34 0.34 0.38 0.43 0.43 0.44 0.43 0.42 0.46 0.54 0.68 0.72 0.76 0.81 0.87 0.94 1.00 1.08 1.14 1.09 1.08 1.16 1.27 1.27 1.31 1.33 1.15 0.99 0.87
0.46 0.42 0.38 0.35 0.32 0.30 0.29 0.28 0.32 0.40 0.44 0.44 0.43 0.43 0.40 0.43 0.42 0.44 0.46 0.41 0.41 0.44 0.47 0.52 0.64 0.70 0.72 0.76 0.81 0.88 0.98 1.01 1.09 1.14 1.15 1.20 1.27 1.25 1.28 1.27 1.11 0.94 0.85
0.45 0.40 0.37 0.35 0.32 0.29 0.28 0.30 0.33 0.41 0.42 0.42 0.45 0.46 0.42 0.42 0.44 0.46 0.42 0.41 0.42 0.43 0.44 0.50 0.62 0.70 0.72 0.77 0.83 0.90 0.92 1.01 1.10 1.15 1.14 1.25 1.29 1.27 1.25 1.18 1.06 0.96 0.88
0.46 0.41 0.38 0.34 0.32 0.30 0.32 0.36 0.38 0.37 0.35 0.39 0.45 0.42 0.41 0.43 0.43 0.43 0.41 0.39 0.38 0.40 0.44 0.50 0.63 0.71 0.74 0.78 0.85 0.88 0.93 0.99 1.07 1.18 1.16 1.31 1.30 1.27 1.20 1.15 1.04 0.92 0.86
0.43 0.39 0.37 0.34 0.32 0.34 0.37 0.39 0.39 0.39 0.40 0.42 0.42 0.41 0.41 0.41 0.41 0.41 0.40 0.36 0.36 0.39 0.44 0.51 0.65 0.73 0.75 0.81 0.86 0.92 0.96 1.01 1.09 1.16 1.21 1.29 1.34 1.31 1.25 1.18 1.05 0.92 0.86
0.41 0.38 0.36 0.34 0.34 0.36 0.39 0.41 0.41 0.42 0.43 0.41 0.39 0.40 0.39 0.38 0.35 0.35 0.37 0.36 0.37 0.40 0.44 0.52 0.64 0.74 0.77 0.80 0.85 0.91 0.96 1.03 1.11 1.19 1.24 1.27 1.34 1.31 1.22 1.19 1.04 0.89 0.86
0.38 0.36 0.36 0.35 0.37 0.42 0.44 0.45 0.43 0.40 0.40 0.38 0.38 0.41 0.40 0.36 0.33 0.33 0.34 0.35 0.38 0.40 0.45 0.53 0.63 0.74 0.77 0.81 0.86 0.90 0.94 1.01 1.10 1.17 1.29 1.29 1.31 1.27 1.25 1.21 1.01 0.91 0.87
0.37 0.36 0.37 0.40 0.44 0.43 0.42 0.41 0.39 0.40 0.39 0.39 0.37 0.37 0.36 0.34 0.34 0.34 0.36 0.39 0.40 0.42 0.48 0.54 0.63 0.73 0.76 0.81 0.85 0.90 0.95 1.02 1.10 1.15 1.27 1.30 1.28 1.29 1.25 1.18 0.97 0.88 0.88
0.38 0.40 0.41 0.41 0.41 0.39 0.38 0.38 0.38 0.39 0.38 0.39 0.37 0.34 0.34 0.34 0.37 0.37 0.38 0.40 0.41 0.44 0.50 0.55 0.64 0.71 0.76 0.82 0.88 0.93 0.96 1.02 1.09 1.17 1.22 1.30 1.30 1.26 1.21 1.10 0.98 0.86 0.86
0.43 0.40 0.39 0.39 0.38 0.37 0.38 0.38 0.39 0.38 0.39 0.38 0.36 0.36 0.36 0.36 0.37 0.37 0.39 0.41 0.43 0.46 0.52 0.55 0.64 0.68 0.73 0.80 0.86 0.93 1.01 1.07 1.14 1.20 1.28 1.34 1.30 1.31 1.22 1.10 0.96 0.93 0.87
0.41 0.40 0.39 0.37 0.36 0.37 0.37 0.39 0.38 0.39 0.37 0.37 0.36 0.37 0.37 0.36 0.38 0.39 0.38 0.42 0.45 0.48 0.49 0.53 0.61 0.66 0.71 0.78 0.83 0.91 1.00 1.08 1.15 1.22 1.29 1.33 1.33 1.30 1.25 1.09 0.97 0.99 0.95
0.41 0.39 0.38 0.37 0.37 0.37 0.40 0.39 0.38 0.38 0.37 0.38 0.37 0.38 0.38 0.36 0.38 0.39 0.41 0.43 0.44 0.46 0.48 0.52 0.59 0.65 0.70 0.78 0.84 0.92 1.00 1.07 1.16 1.24 1.31 1.34 1.32 1.32 1.26 1.14 1.05 1.05 1.06

GFSGL_prec_pwat_006.txt.gz
Precipitable_Water
0.47 0.50 0.54 0.54 0.53 0.51 0.50 0.47 0.43 0.42 0.40 0.34 0.30 0.29 0.27 0.26 0.26 0.27 0.27 0.28 0.31 0.34 0.37 0.37 0.37 0.43 0.49 0.58 0.66 0.68 0.67 0.65 0.55 0.58 0.62 0.59 0.61 0.79 0.98 1.03 1.17 1.23 1.37
0.49 0.54 0.56 0.54 0.54 0.52 0.50 0.47 0.44 0.41 0.39 0.33 0.30 0.28 0.26 0.26 0.26 0.27 0.26 0.30 0.33 0.35 0.36 0.37 0.37 0.44 0.47 0.58 0.66 0.69 0.69 0.70 0.64 0.55 0.62 0.59 0.65 0.90 0.97 1.02 1.21 1.30 1.35
0.53 0.56 0.55 0.54 0.54 0.52 0.50 0.47 0.43 0.41 0.36 0.31 0.28 0.26 0.26 0.26 0.26 0.26 0.29 0.31 0.37 0.38 0.39 0.38 0.39 0.43 0.47 0.58 0.68 0.69 0.73 0.75 0.70 0.67 0.58 0.66 0.81 0.92 0.93 1.03 1.16 1.37 1.36
0.56 0.55 0.54 0.54 0.54 0.53 0.50 0.46 0.42 0.40 0.33 0.30 0.28 0.27 0.27 0.26 0.26 0.27 0.30 0.36 0.40 0.43 0.42 0.42 0.43 0.46 0.48 0.60 0.72 0.72 0.75 0.78 0.78 0.69 0.73 0.65 0.77 0.85 0.89 1.01 1.13 1.28 1.27
0.56 0.55 0.54 0.54 0.54 0.53 0.49 0.45 0.42 0.37 0.32 0.30 0.29 0.28 0.26 0.25 0.26 0.28 0.36 0.42 0.44 0.45 0.45 0.44 0.45 0.48 0.54 0.68 0.72 0.75 0.75 0.74 0.83 0.75 0.78 0.80 0.81 0.84 0.86 1.02 1.19 1.25 1.34
0.55 0.54 0.54 0.54 0.54 0.51 0.50 0.44 0.40 0.34 0.32 0.31 0.29 0.27 0.25 0.25 0.27 0.34 0.41 0.44 0.46 0.45 0.43 0.42 0.45 0.48 0.54 0.72 0.77 0.81 0.83 0.83 0.84 0.83 0.81 0.79 0.78 0.88 0.94 0.99 1.16 1.16 1.05
0.55 0.55 0.54 0.54 0.53 0.51 0.49 0.43 0.37 0.33 0.32 0.30 0.27 0.26 0.25 0.25 0.29 0.37 0.44 0.46 0.47 0.44 0.42 0.40 0.44 0.49 0.58 0.72 0.78 0.81 0.89 0.91 0.94 0.92 0.83 0.82 0.87 0.95 0.95 0.94 1.14 1.14 1.08
0.55 0.55 0.55 0.55 0.53 0.52 0.46 0.40 0.36 0.34 0.32 0.28 0.26 0.26 0.26 0.26 0.32 0.39 0.43 0.45 0.40 0.38 0.39 0.38 0.42 0.49 0.59 0.70 0.75 0.81 0.85 0.91 0.95 0.98 0.95 0.94 1.00 0.99 1.10 1.10 1.13 1.17 1.18
0.56 0.56 0.56 0.55 0.54 0.50 0.42 0.39 0.37 0.35 0.31 0.28 0.27 0.26 0.26 0.28 0.35 0.39 0.42 0.42 0.40 0.38 0.40 0.41 0.47 0.50 0.57 0.74 0.76 0.77 0.82 0.89 1.05 1.11 1.08 1.07 1.08 1.04 1.07 1.10 1.10 1.00 1.02
0.58 0.57 0.57 0.56 0.53 0.46 0.42 0.39 0.37 0.35 0.30 0.28 0.26 0.27 0.27 0.32 0.38 0.40 0.41 0.38 0.39 0.38 0.41 0.43 0.44 0.47 0.58 0.78 0.78 0.78 0.77 0.84 0.97 1.07 1.09 1.09 1.15 1.12 1.13 1.17 1.07 0.95 1.03
0.60 0.59 0.58 0.56 0.51 0.45 0.43 0.40 0.36 0.33 0.30 0.28 0.27 0.27 0.30 0.37 0.39 0.40 0.40 0.41 0.40 0.38 0.39 0.38 0.42 0.46 0.63 0.80 0.82 0.81 0.82 0.92 0.94 1.01 1.08 1.05 1.09 1.09 1.12 1.18 1.12 1.09 1.06
0.61 0.60 0.58 0.54 0.48 0.45 0.43 0.38 0.35 0.32 0.28 0.27 0.27 0.28 0.34 0.39 0.39 0.38 0.41 0.42 0.43 0.40 0.39 0.41 0.43 0.47 0.65 0.79 0.81 0.85 0.87 0.91 0.93 0.98 1.03 1.01 1.02 1.03 1.08 1.17 1.17 1.13 1.17
0.61 0.59 0.55 0.50 0.48 0.46 0.42 0.37 0.33 0.30 0.27 0.26 0.27 0.30 0.35 0.37 0.37 0.38 0.40 0.42 0.44 0.42 0.43 0.43 0.44 0.52 0.70 0.77 0.81 0.84 0.86 0.85 0.89 0.92 0.98 0.99 1.03 1.09 1.14 1.20 1.18 1.15 1.21
0.58 0.56 0.53 0.50 0.47 0.45 0.41 0.37 0.33 0.29 0.27 0.27 0.30 0.33 0.35 0.37 0.36 0.38 0.39 0.42 0.44 0.43 0.40 0.41 0.46 0.55 0.70 0.77 0.79 0.83 0.86 0.88 0.89 0.94 1.04 1.06 1.12 1.12 1.14 1.19 1.10 1.08 1.18
0.60 0.56 0.53 0.50 0.48 0.43 0.40 0.37 0.33 0.30 0.30 0.30 0.36 0.38 0.37 0.37 0.36 0.41 0.44 0.46 0.47 0.40 0.41 0.40 0.43 0.51 0.65 0.73 0.76 0.80 0.86 0.89 0.92 1.06 1.06 1.06 1.10 1.11 1.17 1.21 1.17 1.12 1.15
0.59 0.55 0.52 0.49 0.46 0.42 0.39 0.34 0.35 0.33 0.36 0.42 0.44 0.42 0.43 0.44 0.44 0.42 0.45 0.46 0.42 0.40 0.37 0.36 0.41 0.51 0.63 0.71 0.73 0.76 0.83 0.88 0.92 1.01 1.08 1.08 1.10 1.11 1.15 1.18 1.18 1.16 1.13
0.57 0.53 0.50 0.48 0.46 0.42 0.38 0.32 0.25 0.31 0.40 0.42 0.42 0.42 0.44 0.42 0.42 0.41 0.43 0.43 0.42 0.38 0.34 0.36 0.43 0.54 0.65 0.72 0.74 0.77 0.80 0.89 0.99 1.02 1.06 1.09 1.15 1.21 1.14 1.15 1.17 1.20 1.10
0.56 0.53 0.50 0.49 0.46 0.41 0.36 0.31 0.31 0.33 0.35 0.38 0.42 0.43 0.43 0.41 0.41 0.40 0.42 0.41 0.33 0.34 0.35 0.38 0.43 0.55 0.67 0.72 0.75 0.79 0.83 0.90 0.96 1.04 1.08 1.13 1.17 1.22 1.14 1.14 1.18 1.18 1.02
0.55 0.55 0.52 0.48 0.44 0.39 0.35 0.33 0.35 0.39 0.40 0.40 0.40 0.41 0.41 0.41 0.41 0.40 0.39 0.36 0.32 0.31 0.34 0.38 0.45 0.55 0.68 0.74 0.78 0.81 0.86 0.88 0.94 1.02 1.11 1.17 1.21 1.23 1.16 1.16 1.21 1.16 0.95
0.56 0.55 0.52 0.47 0.41 0.37 0.34 0.35 0.40 0.42 0.42 0.39 0.37 0.37 0.38 0.39 0.36 0.34 0.34 0.34 0.32 0.32 0.36 0.39 0.45 0.56 0.68 0.74 0.77 0.81 0.85 0.88 0.93 0.99 1.07 1.18 1.28 1.29 1.23 1.21 1.22 1.09 0.92
0.57 0.54 0.49 0.42 0.39 0.38 0.40 0.42 0.43 0.40 0.37 0.37 0.38 0.39 0.39 0.36 0.33 0.32 0.32 0.33 0.32 0.34 0.37 0.40 0.45 0.56 0.69 0.75 0.78 0.81 0.84 0.86 0.92 0.99 1.07 1.13 1.28 1.25 1.26 1.27 1.22 1.12 0.94
0.54 0.46 0.42 0.41 0.43 0.40 0.41 0.41 0.38 0.36 0.36 0.37 0.37 0.38 0.37 0.36 0.33 0.34 0.35 0.35 0.35 0.37 0.41 0.43 0.48 0.58 0.70 0.74 0.77 0.80 0.84 0.86 0.93 0.98 1.04 1.10 1.25 1.29 1.26 1.24 1.19 1.12 0.92
0.46 0.43 0.43 0.43 0.41 0.40 0.39 0.37 0.37 0.37 0.37 0.36 0.37 0.37 0.36 0.35 0.35 0.34 0.36 0.36 0.37 0.40 0.43 0.47 0.50 0.59 0.69 0.73 0.78 0.82 0.84 0.90 0.95 1.01 1.03 1.14 1.24 1.24 1.26 1.20 1.17 1.08 0.91
0.44 0.44 0.43 0.41 0.39 0.38 0.36 0.36 0.38 0.39 0.37 0.37 0.36 0.35 0.37 0.36 0.36 0.34 0.37 0.36 0.37 0.42 0.47 0.50 0.51 0.59 0.66 0.70 0.77 0.84 0.89 0.95 1.00 1.04 1.11 1.16 1.23 1.27 1.27 1.23 1.22 1.13 0.99
0.47 0.44 0.42 0.39 0.37 0.36 0.36 0.37 0.39 0.38 0.37 0.36 0.35 0.37 0.37 0.37 0.36 0.35 0.36 0.38 0.40 0.43 0.45 0.49 0.52 0.59 0.64 0.68 0.76 0.83 0.90 0.96 1.02 1.08 1.15 1.22 1.26 1.25 1.25 1.27 1.23 1.18 1.04
0.46 0.42 0.39 0.38 0.36 0.36 0.36 0.38 0.38 0.38 0.37 0.37 0.37 0.38 0.38 0.37 0.36 0.36 0.38 0.41 0.43 0.44 0.45 0.48 0.51 0.57 0.63 0.68 0.78 0.85 0.91 0.95 1.02 1.10 1.14 1.21 1.25 1.24 1.26 1.28 1.22 1.21 1.10

GFSGL_prec_pwat_009.txt.gz
Precipitable_Water
0.47 0.46 0.42 0.43 0.48 0.51 0.53 0.51 0.50 0.51 0.48 0.46 0.44 0.42 0.40 0.35 0.31 0.30 0.28 0.27 0.26 0.27 0.29 0.31 0.36 0.40 0.40 0.39 0.42 0.45 0.47 0.60 0.57 0.59 0.67 0.71 0.66 0.63 0.57 0.58 0.93 1.00 0.97
0.49 0.46 0.42 0.44 0.49 0.53 0.52 0.51 0.52 0.50 0.48 0.45 0.43 0.42 0.38 0.33 0.32 0.30 0.27 0.26 0.26 0.26 0.29 0.36 0.39 0.41 0.40 0.41 0.44 0.46 0.49 0.66 0.65 0.58 0.67 0.67 0.65 0.65 0.61 0.62 0.82 0.97 0.98
0.50 0.46 0.43 0.46 0.51 0.52 0.51 0.51 0.52 0.51 0.47 0.45 0.44 0.40 0.35 0.32 0.31 0.30 0.28 0.26 0.27 0.30 0.36 0.40 0.42 0.44 0.42 0.42 0.44 0.46 0.59 0.71 0.71 0.67 0.65 0.73 0.69 0.66 0.65 0.83 0.96 0.92 1.05
0.52 0.47 0.46 0.50 0.53 0.53 0.52 0.52 0.53 0.51 0.47 0.44 0.43 0.39 0.34 0.33 0.31 0.29 0.26 0.27 0.31 0.36 0.41 0.45 0.45 0.45 0.43 0.43 0.47 0.53 0.66 0.71 0.70 0.71 0.70 0.69 0.66 0.66 0.71 0.71 0.89 1.01 1.08
0.53 0.50 0.49 0.53 0.55 0.54 0.53 0.54 0.53 0.51 0.47 0.46 0.42 0.37 0.35 0.32 0.30 0.28 0.29 0.31 0.36 0.40 0.44 0.45 0.45 0.46 0.48 0.48 0.49 0.56 0.68 0.70 0.70 0.71 0.73 0.73 0.63 0.62 0.57 0.72 0.87 1.04 1.09
0.55 0.53 0.51 0.53 0.56 0.54 0.54 0.55 0.53 0.51 0.48 0.44 0.40 0.37 0.33 0.31 0.30 0.30 0.32 0.37 0.40 0.41 0.41 0.42 0.41 0.40 0.39 0.42 0.50 0.59 0.73 0.72 0.72 0.75 0.76 0.73 0.70 0.66 0.71 0.76 0.89 0.96 0.98
0.56 0.55 0.52 0.54 0.56 0.55 0.55 0.55 0.53 0.50 0.47 0.43 0.39 0.35 0.32 0.30 0.30 0.31 0.36 0.39 0.39 0.40 0.39 0.37 0.36 0.40 0.44 0.45 0.47 0.60 0.76 0.83 0.86 0.86 0.80 0.79 0.78 0.73 0.82 0.86 0.96 0.99 1.16
0.56 0.55 0.53 0.56 0.56 0.55 0.56 0.55 0.53 0.49 0.46 0.42 0.38 0.34 0.32 0.30 0.30 0.32 0.38 0.39 0.37 0.37 0.36 0.38 0.38 0.41 0.44 0.46 0.47 0.67 0.77 0.84 0.88 0.92 0.93 0.89 0.84 0.85 0.92 0.96 1.11 1.15 1.28
0.57 0.56 0.56 0.57 0.56 0.56 0.56 0.54 0.53 0.48 0.46 0.42 0.37 0.33 0.31 0.28 0.30 0.35 0.40 0.39 0.38 0.37 0.38 0.39 0.40 0.40 0.42 0.46 0.52 0.70 0.76 0.80 0.90 0.96 0.98 0.95 0.95 0.94 1.01 1.05 1.08 1.14 1.06
0.58 0.57 0.55 0.59 0.57 0.58 0.56 0.55 0.52 0.49 0.45 0.42 0.36 0.34 0.31 0.30 0.32 0.38 0.40 0.39 0.36 0.35 0.37 0.39 0.39 0.40 0.41 0.48 0.55 0.73 0.70 0.77 0.86 0.92 0.98 0.96 0.96 1.02 1.04 1.05 1.15 1.12 1.13
0.59 0.55 0.57 0.60 0.60 0.58 0.57 0.56 0.51 0.48 0.45 0.39 0.36 0.32 0.30 0.31 0.34 0.40 0.41 0.39 0.36 0.35 0.37 0.36 0.38 0.39 0.43 0.50 0.62 0.74 0.74 0.82 0.84 0.90 0.97 0.99 0.94 0.96 1.02 1.15 1.25 1.23 1.09
0.56 0.56 0.61 0.61 0.60 0.59 0.58 0.54 0.51 0.48 0.42 0.37 0.34 0.29 0.29 0.33 0.39 0.40 0.40 0.40 0.39 0.38 0.38 0.39 0.39 0.40 0.44 0.51 0.66 0.76 0.79 0.80 0.83 0.87 0.93 0.97 0.94 0.94 0.98 1.10 1.23 1.33 1.32
0.58 0.63 0.63 0.61 0.60 0.59 0.55 0.51 0.49 0.46 0.40 0.36 0.32 0.28 0.28 0.35 0.39 0.40 0.41 0.39 0.39 0.41 0.44 0.42 0.39 0.40 0.44 0.50 0.70 0.77 0.78 0.77 0.79 0.81 0.86 0.94 1.01 1.03 1.05 1.11 1.19 1.25 1.19
0.64 0.63 0.62 0.60 0.59 0.57 0.54 0.52 0.48 0.43 0.39 0.36 0.31 0.28 0.30 0.37 0.38 0.39 0.40 0.41 0.42 0.45 0.43 0.39 0.37 0.39 0.44 0.54 0.72 0.77 0.77 0.78 0.79 0.81 0.84 0.96 1.09 1.05 1.03 1.09 1.06 1.13 1.05
0.63 0.62 0.61 0.60 0.56 0.54 0.53 0.50 0.47 0.44 0.41 0.36 0.31 0.32 0.35 0.37 0.38 0.44 0.43 0.42 0.44 0.42 0.40 0.35 0.33 0.35 0.41 0.53 0.69 0.74 0.75 0.77 0.79 0.85 0.89 0.98 1.03 0.99 1.00 1.08 1.00 1.01 0.95
0.62 0.61 0.59 0.57 0.57 0.55 0.52 0.49 0.50 0.49 0.45 0.41 0.39 0.41 0.44 0.44 0.44 0.43 0.42 0.42 0.43 0.42 0.37 0.31 0.30 0.33 0.41 0.54 0.67 0.71 0.73 0.76 0.81 0.86 0.92 0.99 1.02 0.98 0.97 1.03 1.03 1.00 0.96
0.66 0.63 0.61 0.59 0.58 0.55 0.50 0.46 0.44 0.44 0.43 0.40 0.40 0.44 0.46 0.44 0.44 0.42 0.41 0.42 0.41 0.39 0.31 0.30 0.30 0.34 0.43 0.54 0.68 0.71 0.72 0.78 0.85 0.90 0.94 0.99 1.06 1.03 0.99 1.03 1.00 0.99 0.97
0.68 0.64 0.60 0.57 0.56 0.53 0.50 0.49 0.44 0.36 0.33 0.35 0.43 0.46 0.46 0.43 0.42 0.41 0.41 0.40 0.32 0.34 0.32 0.28 0.31 0.35 0.44 0.54 0.68 0.71 0.74 0.80 0.83 0.90 0.93 1.01 1.09 1.06 1.04 1.02 1.00 0.98 0.97
0.60 0.58 0.59 0.58 0.57 0.55 0.51 0.47 0.43 0.39 0.37 0.40 0.44 0.44 0.42 0.40 0.40 0.40 0.40 0.35 0.31 0.30 0.31 0.29 0.33 0.37 0.44 0.55 0.70 0.73 0.75 0.79 0.83 0.86 0.93 1.01 1.09 1.10 1.08 1.11 1.07 1.02 1.00
0.60 0.59 0.60 0.57 0.56 0.53 0.50 0.44 0.42 0.41 0.41 0.42 0.39 0.37 0.39 0.38 0.35 0.35 0.35 0.32 0.31 0.31 0.31 0.31 0.33 0.39 0.46 0.56 0.71 0.74 0.76 0.80 0.84 0.89 0.93 0.99 1.07 1.14 1.14 1.10 1.09 1.04 1.00
0.61 0.57 0.54 0.57 0.56 0.50 0.46 0.47 0.46 0.43 0.41 0.37 0.36 0.39 0.39 0.37 0.35 0.34 0.32 0.32 0.33 0.33 0.32 0.32 0.34 0.41 0.48 0.57 0.72 0.75 0.77 0.81 0.85 0.91 0.97 1.01 1.07 1.12 1.19 1.18 1.12 1.10 1.08
0.56 0.54 0.56 0.51 0.50 0.48 0.47 0.46 0.42 0.39 0.36 0.35 0.37 0.37 0.38 0.36 0.34 0.33 0.33 0.34 0.35 0.36 0.36 0.35 0.38 0.46 0.50 0.57 0.70 0.74 0.76 0.81 0.85 0.92 0.97 1.03 1.09 1.14 1.21 1.17 1.12 1.09 1.11
0.56 0.55 0.51 0.50 0.47 0.48 0.46 0.44 0.39 0.37 0.36 0.37 0.37 0.36 0.36 0.35 0.35 0.35 0.33 0.36 0.36 0.35 0.37 0.38 0.43 0.46 0.52 0.61 0.72 0.75 0.77 0.81 0.86 0.93 0.96 1.01 1.07 1.14 1.24 1.16 1.14 1.11 1.14
0.55 0.51 0.48 0.46 0.48 0.47 0.42 0.37 0.37 0.37 0.38 0.37 0.36 0.34 0.35 0.37 0.36 0.36 0.35 0.36 0.36 0.37 0.39 0.40 0.43 0.45 0.51 0.62 0.70 0.75 0.82 0.86 0.91 0.94 0.99 1.03 1.08 1.17 1.25 1.20 1.18 1.17 1.13
0.48 0.45 0.48 0.51 0.46 0.41 0.39 0.37 0.37 0.38 0.37 0.36 0.35 0.36 0.37 0.37 0.38 0.36 0.36 0.37 0.39 0.40 0.40 0.41 0.43 0.46 0.50 0.62 0.69 0.75 0.83 0.87 0.91 0.96 1.02 1.08 1.09 1.13 1.22 1.22 1.23 1.19 1.11
0.51 0.52 0.51 0.45 0.40 0.39 0.37 0.36 0.37 0.37 0.36 0.36 0.37 0.37 0.38 0.38 0.38 0.37 0.37 0.38 0.39 0.41 0.42 0.43 0.45 0.48 0.51 0.64 0.70 0.78 0.84 0.88 0.92 0.98 1.04 1.08 1.12 1.15 1.20 1.22 1.24 1.20 1.15

GFSGL_prec_pwat_012.txt.gz
Precipitable_Water
0.46 0.48 0.49 0.49 0.49 0.47 0.44 0.45 0.48 0.49 0.49 0.49 0.49 0.50 0.48 0.45 0.45 0.42 0.39 0.35 0.33 0.31 0.30 0.28 0.28 0.32 0.34 0.39 0.42 0.42 0.42 0.42 0.34 0.35 0.48 0.64 0.68 0.71 0.74 0.74 0.70 0.62 0.54
0.47 0.48 0.50 0.51 0.50 0.45 0.43 0.45 0.49 0.49 0.50 0.49 0.50 0.49 0.47 0.45 0.43 0.41 0.37 0.34 0.32 0.29 0.28 0.28 0.31 0.37 0.40 0.43 0.44 0.43 0.43 0.43 0.43 0.40 0.54 0.67 0.70 0.78 0.76 0.71 0.67 0.62 0.58
0.49 0.50 0.50 0.51 0.49 0.45 0.44 0.47 0.51 0.50 0.49 0.51 0.51 0.49 0.47 0.44 0.42 0.41 0.37 0.34 0.31 0.30 0.31 0.32 0.36 0.41 0.41 0.42 0.42 0.40 0.43 0.46 0.49 0.52 0.62 0.69 0.75 0.78 0.72 0.73 0.63 0.59 0.60
0.50 0.49 0.50 0.52 0.50 0.46 0.47 0.50 0.52 0.50 0.50 0.52 0.52 0.50 0.47 0.44 0.43 0.40 0.37 0.33 0.32 0.33 0.35 0.38 0.41 0.41 0.40 0.40 0.41 0.41 0.41 0.43 0.51 0.60 0.65 0.69 0.74 0.77 0.77 0.64 0.56 0.56 0.60
0.48 0.50 0.52 0.55 0.53 0.49 0.49 0.52 0.53 0.50 0.52 0.54 0.53 0.50 0.47 0.45 0.42 0.38 0.37 0.35 0.33 0.36 0.37 0.39 0.41 0.43 0.43 0.41 0.41 0.41 0.44 0.44 0.49 0.64 0.66 0.71 0.73 0.72 0.59 0.65 0.59 0.61 0.65
0.48 0.51 0.55 0.57 0.54 0.51 0.51 0.51 0.53 0.51 0.53 0.54 0.53 0.50 0.46 0.45 0.42 0.41 0.39 0.37 0.37 0.37 0.36 0.38 0.38 0.36 0.36 0.41 0.44 0.45 0.47 0.45 0.55 0.66 0.69 0.70 0.75 0.78 0.72 0.63 0.59 0.52 0.56
0.52 0.51 0.57 0.58 0.56 0.53 0.52 0.51 0.51 0.51 0.54 0.55 0.53 0.50 0.47 0.43 0.42 0.41 0.39 0.37 0.37 0.37 0.36 0.37 0.36 0.37 0.40 0.40 0.39 0.43 0.45 0.51 0.75 0.77 0.73 0.75 0.77 0.85 0.76 0.65 0.60 0.69 0.83
0.53 0.53 0.55 0.58 0.58 0.56 0.53 0.52 0.52 0.53 0.55 0.56 0.53 0.50 0.46 0.43 0.42 0.40 0.38 0.38 0.37 0.39 0.39 0.36 0.36 0.37 0.40 0.40 0.40 0.41 0.44 0.57 0.79 0.81 0.83 0.85 0.89 0.90 0.80 0.72 0.76 0.94 0.95
0.56 0.54 0.55 0.59 0.58 0.57 0.55 0.53 0.52 0.55 0.56 0.56 0.53 0.49 0.45 0.42 0.40 0.39 0.38 0.37 0.38 0.38 0.37 0.35 0.38 0.38 0.39 0.42 0.40 0.42 0.48 0.66 0.80 0.87 0.89 0.94 0.97 0.91 0.89 0.88 0.85 0.88 0.92
0.62 0.61 0.58 0.59 0.59 0.58 0.56 0.52 0.53 0.57 0.57 0.57 0.52 0.49 0.46 0.41 0.40 0.38 0.38 0.38 0.39 0.37 0.35 0.36 0.39 0.39 0.40 0.41 0.43 0.46 0.50 0.67 0.76 0.79 0.84 0.93 0.92 0.94 0.97 0.99 0.96 0.89 1.07
0.67 0.62 0.60 0.61 0.60 0.60 0.55 0.53 0.56 0.58 0.57 0.54 0.51 0.50 0.45 0.41 0.39 0.38 0.39 0.42 0.40 0.38 0.34 0.35 0.38 0.40 0.41 0.41 0.44 0.47 0.62 0.75 0.75 0.80 0.83 0.89 0.88 0.92 0.98 1.03 1.08 1.02 1.00
0.65 0.61 0.61 0.61 0.62 0.58 0.53 0.55 0.58 0.58 0.56 0.52 0.50 0.46 0.43 0.41 0.40 0.38 0.42 0.45 0.43 0.40 0.34 0.39 0.42 0.41 0.39 0.40 0.41 0.52 0.71 0.74 0.75 0.78 0.80 0.80 0.85 0.93 0.97 1.01 1.11 1.25 1.22
0.64 0.61 0.61 0.62 0.60 0.55 0.53 0.58 0.59 0.58 0.53 0.50 0.48 0.44 0.39 0.40 0.38 0.39 0.44 0.43 0.43 0.44 0.42 0.44 0.43 0.37 0.37 0.38 0.40 0.56 0.72 0.71 0.71 0.73 0.77 0.80 0.87 0.95 1.06 1.10 1.21 1.21 1.33
0.59 0.59 0.61 0.59 0.55 0.54 0.59 0.61 0.59 0.55 0.52 0.50 0.47 0.42 0.39 0.38 0.36 0.42 0.42 0.42 0.43 0.44 0.41 0.40 0.40 0.36 0.35 0.38 0.41 0.59 0.71 0.72 0.70 0.72 0.76 0.85 0.90 0.94 0.99 1.08 1.14 1.19 1.16
0.58 0.58 0.57 0.55 0.55 0.58 0.62 0.59 0.56 0.56 0.54 0.51 0.47 0.43 0.40 0.36 0.39 0.44 0.46 0.42 0.43 0.43 0.41 0.40 0.33 0.30 0.28 0.33 0.40 0.59 0.70 0.71 0.70 0.75 0.79 0.81 0.86 0.92 0.97 1.03 1.10 1.15 1.08
0.55 0.53 0.52 0.54 0.57 0.61 0.57 0.58 0.60 0.59 0.57 0.54 0.50 0.48 0.46 0.43 0.47 0.49 0.46 0.44 0.43 0.41 0.36 0.32 0.28 0.28 0.27 0.32 0.40 0.55 0.68 0.69 0.70 0.75 0.79 0.83 0.85 0.92 0.98 1.01 1.08 1.07 1.02
0.52 0.53 0.55 0.58 0.62 0.62 0.62 0.57 0.55 0.57 0.58 0.54 0.54 0.51 0.47 0.47 0.49 0.47 0.43 0.42 0.41 0.39 0.32 0.30 0.29 0.26 0.28 0.32 0.42 0.55 0.65 0.70 0.73 0.76 0.81 0.86 0.90 0.93 0.95 0.97 1.00 1.05 1.04
0.70 0.75 0.78 0.73 0.65 0.60 0.57 0.56 0.53 0.48 0.48 0.50 0.51 0.49 0.49 0.49 0.46 0.43 0.43 0.41 0.33 0.33 0.31 0.29 0.28 0.28 0.28 0.33 0.42 0.55 0.68 0.71 0.73 0.78 0.83 0.88 0.93 0.95 0.95 0.97 0.95 0.94 0.95
0.79 0.75 0.71 0.66 0.61 0.58 0.57 0.54 0.53 0.50 0.52 0.48 0.47 0.51 0.49 0.46 0.43 0.41 0.40 0.35 0.31 0.30 0.31 0.30 0.29 0.27 0.29 0.35 0.44 0.56 0.69 0.71 0.75 0.80 0.83 0.87 0.93 0.94 0.97 0.96 0.96 0.95 0.94
0.73 0.66 0.61 0.58 0.58 0.58 0.56 0.52 0.49 0.52 0.48 0.49 0.52 0.44 0.42 0.41 0.37 0.35 0.36 0.34 0.32 0.31 0.32 0.30 0.28 0.28 0.31 0.37 0.46 0.55 0.68 0.72 0.76 0.79 0.83 0.90 0.93 0.98 0.98 0.97 0.97 0.95 0.94
0.67 0.62 0.59 0.58 0.55 0.55 0.55 0.54 0.51 0.50 0.53 0.49 0.44 0.41 0.42 0.40 0.36 0.36 0.34 0.32 0.32 0.33 0.33 0.32 0.31 0.32 0.36 0.42 0.48 0.56 0.69 0.72 0.76 0.81 0.84 0.88 0.93 0.94 1.01 1.03 1.02 1.00 0.95
0.61 0.59 0.54 0.52 0.53 0.51 0.50 0.49 0.48 0.51 0.48 0.44 0.40 0.39 0.40 0.38 0.36 0.34 0.33 0.33 0.35 0.35 0.35 0.34 0.33 0.36 0.40 0.44 0.50 0.58 0.69 0.72 0.76 0.80 0.83 0.88 0.92 0.96 1.01 1.05 1.05 1.02 0.96
0.59 0.55 0.53 0.53 0.52 0.52 0.48 0.49 0.52 0.48 0.46 0.42 0.39 0.38 0.37 0.35 0.35 0.35 0.34 0.35 0.35 0.35 0.36 0.38 0.38 0.37 0.40 0.45 0.52 0.63 0.70 0.72 0.77 0.83 0.85 0.90 0.94 0.97 1.00 1.05 1.04 1.02 0.96
0.57 0.55 0.53 0.53 0.51 0.48 0.51 0.53 0.49 0.45 0.42 0.39 0.39 0.36 0.35 0.36 0.36 0.36 0.37 0.37 0.36 0.37 0.40 0.42 0.40 0.39 0.40 0.45 0.51 0.66 0.74 0.78 0.84 0.86 0.90 0.93 0.97 1.00 1.00 1.06 1.07 1.02 1.05
0.56 0.53 0.48 0.47 0.48 0.53 0.49 0.44 0.43 0.41 0.38 0.38 0.37 0.36 0.37 0.37 0.37 0.38 0.38 0.38 0.37 0.36 0.39 0.42 0.42 0.41 0.41 0.45 0.52 0.68 0.75 0.81 0.85 0.88 0.93 0.97 1.01 1.03 1.06 1.09 1.10 1.09 1.08
0.49 0.48 0.50 0.54 0.54 0.47 0.43 0.41 0.39 0.38 0.37 0.38 0.37 0.37 0.36 0.37 0.38 0.39 0.39 0.37 0.36 0.42 0.43 0.44 0.43 0.42 0.44 0.49 0.57 0.71 0.77 0.81 0.84 0.89 0.95 0.99 1.02 1.06 1.11 1.14 1.12 1.09 1.08

GFSGL_prec_pwat_015.txt.gz
Precipitable_Water
0.51 0.50 0.50 0.51 0.52 0.52 0.51 0.50 0.50 0.48 0.46 0.46 0.46 0.46 0.46 0.48 0.50 0.49 0.48 0.46 0.43 0.40 0.38 0.35 0.32 0.33 0.33 0.36 0.40 0.42 0.41 0.41 0.34 0.32 0.38 0.40 0.42 0.47 0.67 0.73 0.77 0.76 0.76
0.53 0.51 0.50 0.51 0.52 0.52 0.51 0.52 0.50 0.45 0.46 0.46 0.46 0.46 0.47 0.49 0.50 0.49 0.47 0.44 0.42 0.39 0.35 0.33 0.32 0.36 0.36 0.41 0.43 0.41 0.41 0.42 0.38 0.31 0.38 0.39 0.43 0.61 0.73 0.73 0.76 0.80 0.74
0.55 0.54 0.51 0.50 0.51 0.52 0.52 0.52 0.49 0.45 0.46 0.47 0.48 0.47 0.47 0.48 0.49 0.49 0.47 0.45 0.42 0.38 0.34 0.34 0.36 0.38 0.39 0.41 0.41 0.40 0.41 0.41 0.41 0.37 0.35 0.42 0.53 0.70 0.72 0.79 0.78 0.77 0.76
0.57 0.54 0.52 0.50 0.54 0.54 0.53 0.52 0.48 0.47 0.47 0.48 0.49 0.47 0.48 0.50 0.50 0.49 0.48 0.46 0.41 0.37 0.37 0.39 0.39 0.40 0.40 0.40 0.40 0.40 0.41 0.42 0.42 0.41 0.41 0.42 0.62 0.72 0.77 0.75 0.72 0.74 0.70
0.57 0.57 0.52 0.53 0.56 0.56 0.53 0.53 0.49 0.49 0.49 0.49 0.48 0.48 0.50 0.52 0.51 0.50 0.48 0.44 0.41 0.39 0.39 0.41 0.41 0.42 0.43 0.41 0.38 0.39 0.42 0.41 0.39 0.40 0.40 0.50 0.63 0.68 0.70 0.75 0.69 0.62 0.67
0.60 0.58 0.56 0.56 0.55 0.55 0.54 0.53 0.50 0.50 0.51 0.48 0.47 0.49 0.51 0.53 0.53 0.53 0.49 0.46 0.43 0.41 0.39 0.40 0.42 0.41 0.38 0.38 0.40 0.43 0.43 0.40 0.41 0.40 0.46 0.61 0.67 0.70 0.75 0.76 0.67 0.58 0.52
0.67 0.60 0.57 0.57 0.55 0.55 0.55 0.53 0.51 0.51 0.51 0.48 0.48 0.50 0.53 0.54 0.55 0.53 0.51 0.49 0.45 0.40 0.40 0.40 0.40 0.37 0.38 0.38 0.39 0.42 0.43 0.44 0.48 0.49 0.59 0.68 0.69 0.77 0.79 0.76 0.69 0.63 0.55
0.70 0.65 0.61 0.58 0.57 0.57 0.57 0.55 0.54 0.53 0.52 0.49 0.49 0.52 0.55 0.54 0.54 0.53 0.51 0.49 0.43 0.41 0.41 0.42 0.39 0.36 0.37 0.37 0.40 0.40 0.40 0.43 0.49 0.68 0.76 0.78 0.83 0.86 0.85 0.81 0.73 0.66 0.65
0.71 0.68 0.63 0.61 0.57 0.58 0.57 0.57 0.56 0.56 0.53 0.51 0.50 0.53 0.55 0.54 0.54 0.52 0.51 0.48 0.42 0.39 0.43 0.41 0.39 0.36 0.37 0.41 0.40 0.38 0.40 0.44 0.65 0.78 0.84 0.85 0.89 0.91 0.88 0.81 0.64 0.58 0.67
0.73 0.69 0.65 0.65 0.58 0.56 0.57 0.58 0.58 0.58 0.53 0.52 0.50 0.55 0.56 0.53 0.52 0.51 0.51 0.46 0.40 0.42 0.42 0.41 0.39 0.38 0.40 0.43 0.40 0.38 0.38 0.47 0.69 0.74 0.81 0.87 0.92 0.93 0.91 0.76 0.73 0.71 0.81
0.75 0.69 0.64 0.62 0.57 0.58 0.58 0.58 0.59 0.57 0.54 0.51 0.50 0.56 0.57 0.54 0.51 0.51 0.49 0.46 0.43 0.44 0.39 0.39 0.37 0.39 0.42 0.40 0.40 0.40 0.42 0.61 0.70 0.73 0.79 0.85 0.86 0.90 0.86 0.90 0.95 0.97 0.89
0.76 0.68 0.61 0.61 0.62 0.62 0.60 0.59 0.61 0.58 0.54 0.50 0.52 0.56 0.55 0.53 0.52 0.50 0.49 0.48 0.51 0.46 0.41 0.41 0.40 0.42 0.41 0.36 0.36 0.40 0.46 0.65 0.70 0.72 0.75 0.80 0.77 0.81 0.86 1.00 1.03 1.08 1.06
0.76 0.69 0.68 0.65 0.65 0.64 0.60 0.60 0.60 0.58 0.52 0.50 0.54 0.55 0.51 0.52 0.51 0.51 0.49 0.50 0.53 0.45 0.45 0.46 0.43 0.42 0.38 0.32 0.35 0.38 0.45 0.64 0.67 0.69 0.73 0.75 0.78 0.85 0.91 1.01 1.10 1.10 1.09
0.76 0.72 0.70 0.67 0.65 0.62 0.61 0.62 0.59 0.54 0.50 0.51 0.55 0.51 0.51 0.50 0.49 0.49 0.49 0.51 0.49 0.46 0.44 0.44 0.40 0.40 0.34 0.31 0.33 0.39 0.45 0.66 0.67 0.69 0.75 0.79 0.84 0.87 0.90 0.96 1.00 1.00 1.07
0.70 0.70 0.74 0.73 0.64 0.62 0.62 0.59 0.56 0.53 0.51 0.52 0.53 0.52 0.51 0.46 0.48 0.51 0.51 0.52 0.48 0.45 0.45 0.43 0.36 0.33 0.29 0.27 0.30 0.35 0.43 0.65 0.66 0.69 0.76 0.81 0.81 0.86 0.88 1.01 1.00 1.02 1.06
0.65 0.66 0.67 0.67 0.63 0.59 0.56 0.55 0.55 0.54 0.55 0.58 0.59 0.57 0.51 0.52 0.55 0.54 0.56 0.53 0.47 0.45 0.41 0.36 0.33 0.30 0.27 0.26 0.27 0.32 0.41 0.63 0.66 0.68 0.74 0.80 0.80 0.86 0.88 0.97 1.03 1.09 1.05
0.61 0.63 0.63 0.61 0.54 0.52 0.52 0.52 0.51 0.56 0.60 0.67 0.63 0.58 0.56 0.56 0.56 0.56 0.54 0.50 0.46 0.44 0.36 0.33 0.30 0.29 0.27 0.27 0.27 0.32 0.39 0.61 0.67 0.69 0.73 0.78 0.81 0.84 0.89 0.97 1.01 1.05 1.05
0.64 0.62 0.59 0.55 0.54 0.53 0.54 0.53 0.55 0.63 0.64 0.59 0.61 0.57 0.58 0.58 0.57 0.54 0.50 0.47 0.40 0.36 0.33 0.31 0.29 0.29 0.29 0.27 0.27 0.31 0.40 0.60 0.65 0.68 0.72 0.76 0.79 0.81 0.86 0.94 1.00 1.01 1.03
0.61 0.61 0.61 0.60 0.60 0.62 0.62 0.67 0.67 0.63 0.57 0.51 0.51 0.58 0.60 0.56 0.58 0.53 0.47 0.41 0.35 0.32 0.31 0.30 0.30 0.30 0.29 0.28 0.30 0.33 0.42 0.59 0.66 0.68 0.72 0.76 0.80 0.83 0.86 0.97 0.96 0.98 1.03
0.70 0.69 0.71 0.72 0.72 0.71 0.68 0.65 0.62 0.57 0.52 0.52 0.56 0.53 0.56 0.55 0.44 0.41 0.41 0.38 0.36 0.33 0.30 0.30 0.32 0.33 0.31 0.32 0.35 0.37 0.42 0.59 0.67 0.68 0.72 0.78 0.81 0.85 0.88 0.95 0.99 0.95 0.99
0.72 0.72 0.71 0.69 0.67 0.66 0.63 0.58 0.54 0.54 0.54 0.52 0.51 0.58 0.52 0.45 0.42 0.40 0.39 0.36 0.34 0.32 0.32 0.31 0.32 0.34 0.33 0.36 0.38 0.40 0.44 0.60 0.68 0.70 0.72 0.78 0.83 0.83 0.90 0.93 1.00 0.99 1.02
0.69 0.67 0.66 0.65 0.63 0.59 0.56 0.55 0.53 0.51 0.48 0.50 0.52 0.48 0.47 0.46 0.43 0.40 0.37 0.35 0.35 0.34 0.34 0.34 0.34 0.35 0.36 0.38 0.38 0.40 0.44 0.60 0.67 0.71 0.75 0.80 0.83 0.88 0.92 0.93 0.95 0.94 0.97
0.67 0.65 0.60 0.56 0.54 0.53 0.50 0.48 0.46 0.45 0.50 0.49 0.44 0.45 0.46 0.42 0.40 0.39 0.36 0.36 0.36 0.35 0.35 0.37 0.38 0.38 0.38 0.40 0.41 0.43 0.46 0.62 0.70 0.76 0.77 0.80 0.85 0.89 0.92 0.94 0.96 0.94 0.92
0.64 0.60 0.57 0.54 0.51 0.51 0.50 0.48 0.51 0.52 0.49 0.47 0.45 0.45 0.41 0.39 0.39 0.38 0.39 0.38 0.37 0.36 0.36 0.36 0.39 0.40 0.39 0.40 0.41 0.44 0.52 0.68 0.75 0.79 0.80 0.82 0.85 0.90 0.92 0.95 0.96 0.98 0.97
0.60 0.57 0.53 0.50 0.46 0.47 0.52 0.56 0.51 0.48 0.46 0.46 0.43 0.39 0.38 0.38 0.37 0.38 0.38 0.38 0.38 0.36 0.37 0.39 0.41 0.42 0.41 0.41 0.42 0.46 0.55 0.70 0.77 0.80 0.83 0.86 0.88 0.91 0.90 0.92 0.96 1.02 1.02
0.57 0.50 0.46 0.48 0.50 0.52 0.50 0.46 0.45 0.45 0.43 0.42 0.39 0.38 0.37 0.37 0.37 0.37 0.38 0.39 0.37 0.36 0.39 0.42 0.44 0.45 0.44 0.45 0.47 0.50 0.58 0.73 0.78 0.81 0.84 0.87 0.89 0.92 0.96 0.95 0.99 1.00 0.99

GFSGL_prec_pwat_021.txt.gz
Precipitable_Water
0.70 0.65 0.63 0.65 0.66 0.66 0.67 0.70 0.68 0.65 0.65 0.64 0.62 0.57 0.55 0.54 0.54 0.51 0.48 0.48 0.46 0.47 0.51 0.51 0.50 0.49 0.47 0.46 0.44 0.43 0.43 0.43 0.40 0.44 0.46 0.45 0.41 0.40 0.42 0.46 0.48 0.47 0.46
0.73 0.72 0.67 0.69 0.66 0.65 0.66 0.68 0.70 0.66 0.65 0.65 0.61 0.59 0.56 0.54 0.53 0.49 0.48 0.48 0.46 0.46 0.50 0.51 0.50 0.49 0.47 0.45 0.44 0.46 0.46 0.49 0.45 0.38 0.40 0.40 0.39 0.39 0.44 0.44 0.44 0.49 0.51
0.71 0.74 0.72 0.71 0.68 0.65 0.67 0.67 0.69 0.66 0.65 0.63 0.62 0.59 0.55 0.55 0.53 0.49 0.48 0.47 0.46 0.48 0.51 0.51 0.50 0.48 0.44 0.44 0.46 0.47 0.48 0.48 0.44 0.40 0.36 0.39 0.39 0.43 0.43 0.44 0.46 0.47 0.60
0.69 0.74 0.75 0.70 0.73 0.69 0.69 0.67 0.66 0.65 0.63 0.63 0.62 0.59 0.57 0.57 0.53 0.48 0.47 0.48 0.46 0.48 0.50 0.52 0.50 0.46 0.45 0.46 0.48 0.47 0.48 0.45 0.41 0.37 0.35 0.34 0.40 0.45 0.51 0.54 0.60 0.68 0.68
0.61 0.72 0.76 0.79 0.74 0.74 0.71 0.68 0.67 0.65 0.64 0.64 0.61 0.60 0.59 0.56 0.51 0.49 0.50 0.48 0.46 0.48 0.51 0.51 0.50 0.49 0.50 0.52 0.50 0.48 0.47 0.41 0.38 0.34 0.34 0.34 0.38 0.46 0.54 0.64 0.66 0.69 0.73
0.63 0.68 0.77 0.80 0.77 0.75 0.73 0.69 0.67 0.65 0.64 0.62 0.61 0.60 0.58 0.55 0.52 0.52 0.51 0.48 0.46 0.48 0.51 0.52 0.51 0.53 0.55 0.56 0.54 0.53 0.47 0.42 0.37 0.35 0.35 0.33 0.40 0.52 0.61 0.67 0.70 0.69 0.64
0.63 0.68 0.76 0.75 0.78 0.79 0.77 0.70 0.68 0.66 0.64 0.62 0.61 0.60 0.58 0.56 0.54 0.53 0.51 0.48 0.47 0.51 0.52 0.53 0.53 0.53 0.53 0.50 0.52 0.50 0.44 0.44 0.44 0.42 0.37 0.41 0.48 0.59 0.66 0.70 0.73 0.73 0.72
0.60 0.64 0.70 0.72 0.73 0.80 0.78 0.73 0.70 0.68 0.63 0.61 0.61 0.60 0.59 0.58 0.55 0.53 0.50 0.48 0.49 0.54 0.57 0.56 0.54 0.53 0.52 0.53 0.51 0.45 0.41 0.42 0.41 0.41 0.42 0.47 0.60 0.69 0.77 0.80 0.79 0.78 0.80
0.59 0.57 0.63 0.66 0.65 0.76 0.79 0.78 0.72 0.69 0.64 0.61 0.61 0.59 0.58 0.57 0.55 0.54 0.54 0.49 0.51 0.56 0.59 0.57 0.55 0.53 0.55 0.54 0.52 0.43 0.39 0.38 0.40 0.42 0.43 0.59 0.72 0.78 0.85 0.82 0.76 0.70 0.66
0.55 0.50 0.60 0.64 0.64 0.66 0.78 0.81 0.77 0.73 0.65 0.63 0.60 0.60 0.59 0.57 0.55 0.56 0.56 0.53 0.52 0.55 0.58 0.56 0.56 0.54 0.56 0.55 0.51 0.43 0.35 0.32 0.35 0.34 0.45 0.67 0.74 0.83 0.89 0.88 0.79 0.72 0.73
0.49 0.51 0.56 0.56 0.56 0.61 0.78 0.83 0.79 0.72 0.67 0.63 0.61 0.60 0.59 0.57 0.58 0.58 0.58 0.54 0.52 0.55 0.55 0.53 0.57 0.60 0.58 0.56 0.51 0.43 0.35 0.35 0.34 0.38 0.56 0.66 0.77 0.85 0.85 0.84 0.94 0.88 0.83
0.47 0.51 0.54 0.49 0.52 0.58 0.76 0.85 0.79 0.72 0.65 0.62 0.60 0.59 0.59 0.59 0.61 0.61 0.60 0.55 0.54 0.54 0.54 0.56 0.60 0.61 0.61 0.56 0.50 0.40 0.36 0.36 0.38 0.37 0.59 0.66 0.77 0.81 0.80 0.91 1.01 1.05 1.14
0.45 0.51 0.47 0.48 0.55 0.60 0.73 0.84 0.80 0.68 0.64 0.61 0.58 0.58 0.59 0.58 0.62 0.61 0.61 0.56 0.54 0.55 0.56 0.60 0.60 0.63 0.57 0.51 0.48 0.38 0.35 0.37 0.34 0.40 0.59 0.68 0.78 0.79 0.86 0.93 1.04 1.15 1.21
0.47 0.51 0.45 0.52 0.63 0.66 0.72 0.78 0.82 0.69 0.63 0.60 0.57 0.58 0.59 0.59 0.60 0.61 0.60 0.57 0.56 0.58 0.59 0.58 0.62 0.60 0.55 0.50 0.43 0.35 0.35 0.36 0.34 0.43 0.61 0.72 0.75 0.81 0.86 0.97 1.02 1.08 1.16
0.53 0.53 0.46 0.58 0.62 0.65 0.71 0.80 0.82 0.72 0.65 0.60 0.59 0.61 0.59 0.56 0.58 0.60 0.56 0.55 0.56 0.60 0.61 0.64 0.62 0.55 0.51 0.46 0.39 0.33 0.33 0.35 0.32 0.44 0.60 0.70 0.72 0.79 0.86 1.02 1.04 1.10 1.07
0.55 0.53 0.51 0.61 0.67 0.66 0.71 0.78 0.84 0.73 0.67 0.65 0.65 0.62 0.58 0.58 0.60 0.59 0.57 0.56 0.59 0.64 0.67 0.60 0.54 0.50 0.47 0.43 0.35 0.30 0.31 0.33 0.32 0.41 0.59 0.68 0.71 0.78 0.86 0.97 1.02 1.08 1.08
0.57 0.56 0.58 0.63 0.69 0.67 0.70 0.74 0.71 0.72 0.69 0.65 0.62 0.60 0.59 0.58 0.59 0.58 0.56 0.57 0.60 0.66 0.61 0.56 0.52 0.49 0.44 0.41 0.35 0.30 0.29 0.33 0.33 0.38 0.56 0.66 0.70 0.78 0.85 0.94 0.99 1.08 1.05
0.60 0.60 0.60 0.65 0.68 0.69 0.65 0.72 0.73 0.69 0.64 0.61 0.61 0.59 0.57 0.58 0.59 0.61 0.63 0.62 0.61 0.67 0.60 0.54 0.50 0.47 0.42 0.36 0.32 0.31 0.31 0.32 0.32 0.37 0.52 0.65 0.69 0.74 0.82 0.89 0.95 0.97 1.06
0.59 0.60 0.63 0.66 0.68 0.64 0.65 0.65 0.68 0.66 0.62 0.59 0.58 0.61 0.64 0.65 0.64 0.63 0.62 0.62 0.64 0.60 0.57 0.51 0.50 0.44 0.39 0.35 0.33 0.33 0.33 0.32 0.37 0.38 0.50 0.63 0.70 0.73 0.80 0.87 0.92 0.97 1.01
0.61 0.62 0.64 0.67 0.67 0.66 0.64 0.65 0.64 0.60 0.59 0.58 0.62 0.62 0.65 0.63 0.59 0.56 0.60 0.61 0.59 0.58 0.54 0.48 0.45 0.42 0.37 0.35 0.34 0.35 0.37 0.36 0.37 0.39 0.49 0.61 0.69 0.72 0.77 0.82 0.88 0.92 0.97
0.61 0.62 0.64 0.66 0.67 0.67 0.65 0.61 0.62 0.64 0.63 0.61 0.59 0.61 0.60 0.59 0.59 0.62 0.61 0.60 0.57 0.51 0.49 0.46 0.43 0.39 0.38 0.36 0.36 0.35 0.36 0.36 0.36 0.38 0.48 0.61 0.68 0.70 0.76 0.81 0.86 0.91 0.96
0.63 0.63 0.63 0.63 0.66 0.67 0.67 0.67 0.64 0.63 0.62 0.58 0.60 0.63 0.64 0.63 0.61 0.59 0.58 0.54 0.51 0.50 0.48 0.45 0.41 0.38 0.38 0.37 0.37 0.36 0.36 0.35 0.35 0.38 0.44 0.60 0.64 0.70 0.74 0.80 0.84 0.87 0.94
0.63 0.63 0.63 0.65 0.67 0.68 0.67 0.67 0.67 0.65 0.63 0.62 0.64 0.63 0.60 0.60 0.60 0.55 0.51 0.51 0.49 0.47 0.44 0.42 0.40 0.38 0.38 0.39 0.40 0.40 0.38 0.37 0.37 0.39 0.42 0.57 0.62 0.69 0.72 0.77 0.82 0.84 0.90
0.63 0.63 0.63 0.64 0.64 0.64 0.63 0.62 0.62 0.61 0.61 0.58 0.55 0.55 0.54 0.51 0.48 0.48 0.50 0.50 0.47 0.43 0.42 0.42 0.40 0.38 0.37 0.39 0.42 0.43 0.44 0.44 0.43 0.42 0.42 0.55 0.62 0.69 0.71 0.76 0.82 0.85 0.90
0.62 0.62 0.62 0.61 0.60 0.58 0.57 0.56 0.55 0.54 0.54 0.55 0.54 0.51 0.49 0.49 0.49 0.49 0.51 0.49 0.44 0.42 0.41 0.40 0.39 0.38 0.40 0.42 0.44 0.45 0.45 0.44 0.42 0.43 0.44 0.54 0.63 0.69 0.72 0.75 0.80 0.86 0.89
0.61 0.59 0.58 0.58 0.56 0.55 0.54 0.55 0.56 0.56 0.53 0.52 0.50 0.50 0.50 0.49 0.47 0.44 0.41 0.41 0.41 0.42 0.40 0.39 0.40 0.41 0.42 0.44 0.45 0.44 0.42 0.41 0.42 0.45 0.45 0.53 0.66 0.69 0.73 0.75 0.79 0.84 0.88

GFSGL_prec_pwat_024.txt.gz
Precipitable_Water
0.42 0.50 0.59 0.64 0.72 0.66 0.64 0.71 0.80 0.81 0.77 0.73 0.68 0.67 0.68 0.66 0.65 0.61 0.56 0.53 0.52 0.49 0.46 0.46 0.45 0.47 0.48 0.51 0.50 0.48 0.44 0.42 0.38 0.42 0.47 0.50 0.47 0.45 0.45 0.43 0.41 0.43 0.45
0.49 0.52 0.51 0.62 0.73 0.73 0.67 0.68 0.74 0.77 0.77 0.76 0.71 0.67 0.68 0.67 0.66 0.62 0.55 0.54 0.53 0.47 0.46 0.46 0.45 0.46 0.49 0.50 0.49 0.45 0.44 0.46 0.45 0.41 0.47 0.45 0.44 0.44 0.42 0.39 0.42 0.47 0.48
0.52 0.51 0.54 0.59 0.75 0.76 0.72 0.72 0.73 0.74 0.77 0.79 0.73 0.67 0.67 0.67 0.65 0.63 0.56 0.56 0.52 0.47 0.48 0.47 0.44 0.47 0.49 0.50 0.48 0.47 0.49 0.50 0.48 0.46 0.44 0.45 0.43 0.41 0.36 0.40 0.43 0.49 0.58
0.50 0.51 0.58 0.63 0.67 0.76 0.77 0.73 0.76 0.76 0.78 0.78 0.75 0.72 0.69 0.68 0.66 0.62 0.58 0.55 0.51 0.48 0.49 0.47 0.46 0.49 0.51 0.49 0.47 0.48 0.50 0.47 0.47 0.46 0.43 0.39 0.38 0.38 0.36 0.35 0.42 0.54 0.59
0.43 0.47 0.54 0.63 0.66 0.71 0.77 0.78 0.78 0.76 0.77 0.78 0.75 0.73 0.71 0.69 0.66 0.59 0.58 0.56 0.50 0.48 0.48 0.47 0.48 0.52 0.53 0.52 0.51 0.51 0.50 0.47 0.47 0.44 0.39 0.36 0.34 0.32 0.32 0.41 0.48 0.57 0.62
0.42 0.40 0.48 0.63 0.68 0.66 0.77 0.80 0.79 0.77 0.76 0.76 0.73 0.72 0.70 0.69 0.65 0.62 0.59 0.57 0.50 0.47 0.47 0.46 0.49 0.53 0.56 0.57 0.58 0.58 0.54 0.50 0.48 0.44 0.39 0.35 0.32 0.35 0.41 0.50 0.56 0.58 0.57
0.39 0.38 0.42 0.59 0.65 0.62 0.70 0.77 0.82 0.81 0.76 0.74 0.72 0.72 0.70 0.69 0.66 0.64 0.62 0.56 0.49 0.50 0.48 0.46 0.48 0.53 0.58 0.58 0.57 0.52 0.54 0.54 0.52 0.47 0.41 0.35 0.34 0.39 0.49 0.54 0.63 0.70 0.69
0.41 0.39 0.45 0.57 0.60 0.59 0.67 0.73 0.78 0.84 0.77 0.74 0.72 0.70 0.69 0.68 0.68 0.67 0.62 0.55 0.52 0.50 0.47 0.47 0.51 0.56 0.58 0.57 0.53 0.50 0.51 0.51 0.47 0.46 0.40 0.39 0.41 0.48 0.62 0.70 0.75 0.75 0.77
0.37 0.40 0.52 0.52 0.51 0.53 0.65 0.68 0.74 0.82 0.81 0.74 0.72 0.70 0.68 0.67 0.70 0.68 0.62 0.54 0.51 0.49 0.50 0.52 0.56 0.58 0.57 0.57 0.53 0.50 0.50 0.47 0.48 0.40 0.37 0.36 0.47 0.66 0.76 0.78 0.72 0.71 0.69
0.36 0.46 0.48 0.47 0.46 0.51 0.63 0.61 0.70 0.80 0.84 0.76 0.71 0.69 0.68 0.69 0.71 0.68 0.61 0.54 0.50 0.49 0.52 0.53 0.58 0.58 0.57 0.57 0.55 0.51 0.48 0.42 0.39 0.31 0.34 0.39 0.62 0.73 0.82 0.80 0.81 0.74 0.75
0.39 0.45 0.46 0.48 0.47 0.54 0.58 0.58 0.64 0.76 0.85 0.77 0.70 0.68 0.68 0.70 0.70 0.67 0.60 0.52 0.48 0.50 0.52 0.53 0.58 0.62 0.59 0.60 0.60 0.56 0.50 0.46 0.35 0.35 0.35 0.47 0.66 0.76 0.77 0.85 0.93 0.87 0.84
0.38 0.42 0.44 0.46 0.48 0.56 0.51 0.56 0.62 0.73 0.81 0.78 0.67 0.64 0.67 0.71 0.70 0.67 0.59 0.53 0.53 0.52 0.52 0.56 0.62 0.64 0.63 0.64 0.62 0.58 0.50 0.42 0.35 0.34 0.31 0.52 0.67 0.71 0.79 0.90 0.95 1.06 1.08
0.36 0.38 0.43 0.47 0.52 0.55 0.48 0.57 0.58 0.72 0.78 0.77 0.64 0.62 0.63 0.68 0.69 0.68 0.59 0.56 0.56 0.54 0.58 0.61 0.63 0.64 0.65 0.64 0.60 0.56 0.44 0.36 0.32 0.31 0.31 0.54 0.66 0.72 0.89 0.94 1.05 1.13 1.20
0.34 0.37 0.43 0.48 0.53 0.51 0.56 0.62 0.65 0.74 0.77 0.77 0.65 0.60 0.62 0.66 0.67 0.68 0.60 0.60 0.59 0.57 0.58 0.57 0.59 0.61 0.64 0.65 0.58 0.52 0.40 0.34 0.33 0.31 0.33 0.58 0.68 0.79 0.90 0.97 1.02 1.09 1.10
0.35 0.39 0.45 0.49 0.50 0.53 0.59 0.67 0.70 0.81 0.82 0.76 0.66 0.63 0.63 0.63 0.65 0.66 0.62 0.60 0.57 0.56 0.55 0.55 0.59 0.65 0.66 0.61 0.53 0.46 0.36 0.33 0.33 0.30 0.34 0.55 0.67 0.77 0.90 0.98 1.04 1.09 1.05
0.37 0.45 0.47 0.50 0.50 0.53 0.60 0.65 0.80 0.84 0.85 0.80 0.71 0.68 0.69 0.68 0.69 0.67 0.62 0.59 0.58 0.61 0.58 0.56 0.61 0.66 0.62 0.53 0.48 0.39 0.32 0.30 0.32 0.30 0.35 0.54 0.67 0.75 0.88 0.95 1.01 1.05 1.04
0.43 0.48 0.50 0.52 0.51 0.52 0.61 0.66 0.69 0.79 0.83 0.71 0.68 0.67 0.68 0.68 0.66 0.66 0.63 0.61 0.64 0.68 0.55 0.56 0.62 0.63 0.58 0.51 0.45 0.35 0.28 0.29 0.31 0.31 0.37 0.50 0.68 0.76 0.86 0.92 0.97 1.02 1.04
0.51 0.55 0.55 0.52 0.51 0.56 0.64 0.69 0.71 0.71 0.68 0.65 0.68 0.69 0.68 0.66 0.65 0.63 0.60 0.58 0.63 0.64 0.57 0.59 0.64 0.61 0.55 0.49 0.40 0.33 0.29 0.29 0.32 0.34 0.38 0.48 0.67 0.75 0.83 0.89 0.90 0.99 1.03
0.57 0.56 0.56 0.54 0.56 0.63 0.68 0.69 0.69 0.68 0.68 0.68 0.68 0.67 0.65 0.63 0.62 0.59 0.57 0.57 0.60 0.57 0.61 0.65 0.63 0.56 0.51 0.47 0.36 0.33 0.33 0.34 0.35 0.35 0.39 0.46 0.64 0.72 0.80 0.90 0.91 0.97 1.03
0.57 0.56 0.56 0.58 0.62 0.66 0.67 0.66 0.68 0.69 0.68 0.65 0.64 0.64 0.64 0.62 0.58 0.55 0.60 0.62 0.62 0.64 0.65 0.61 0.57 0.54 0.51 0.42 0.36 0.35 0.35 0.35 0.36 0.33 0.38 0.45 0.61 0.72 0.76 0.88 0.93 0.90 0.98
0.56 0.57 0.59 0.62 0.63 0.64 0.65 0.65 0.66 0.66 0.67 0.65 0.64 0.65 0.63 0.57 0.57 0.61 0.61 0.61 0.62 0.62 0.59 0.57 0.54 0.50 0.47 0.40 0.36 0.36 0.36 0.34 0.35 0.34 0.35 0.44 0.58 0.65 0.76 0.85 0.89 0.94 0.97
0.57 0.57 0.59 0.59 0.62 0.62 0.63 0.64 0.65 0.65 0.66 0.65 0.64 0.67 0.67 0.63 0.60 0.61 0.62 0.63 0.63 0.62 0.59 0.53 0.51 0.47 0.44 0.39 0.36 0.38 0.37 0.35 0.34 0.34 0.33 0.38 0.53 0.62 0.72 0.79 0.85 0.90 0.94
0.58 0.58 0.59 0.61 0.62 0.62 0.63 0.63 0.63 0.64 0.63 0.63 0.63 0.60 0.60 0.62 0.64 0.64 0.62 0.59 0.58 0.56 0.53 0.51 0.47 0.43 0.42 0.41 0.41 0.41 0.39 0.38 0.37 0.37 0.35 0.33 0.40 0.56 0.67 0.73 0.80 0.85 0.91
0.59 0.59 0.59 0.60 0.61 0.62 0.63 0.64 0.66 0.66 0.66 0.67 0.65 0.64 0.64 0.64 0.62 0.63 0.62 0.58 0.54 0.51 0.50 0.46 0.43 0.42 0.40 0.41 0.42 0.44 0.45 0.45 0.43 0.38 0.37 0.34 0.34 0.50 0.61 0.70 0.77 0.83 0.89
0.60 0.59 0.59 0.59 0.60 0.60 0.61 0.62 0.63 0.63 0.62 0.63 0.62 0.60 0.59 0.58 0.58 0.56 0.55 0.54 0.51 0.48 0.45 0.43 0.43 0.41 0.41 0.42 0.45 0.45 0.44 0.42 0.42 0.40 0.38 0.37 0.35 0.41 0.59 0.67 0.74 0.81 0.87
0.58 0.58 0.58 0.59 0.58 0.59 0.58 0.58 0.57 0.58 0.57 0.58 0.58 0.58 0.56 0.52 0.51 0.50 0.50 0.49 0.46 0.43 0.41 0.42 0.42 0.43 0.43 0.44 0.42 0.43 0.42 0.42 0.42 0.42 0.39 0.38 0.36 0.39 0.58 0.64 0.71 0.78 0.84

GFSGL_prec_pwat_027.txt.gz
Precipitable_Water
0.34 0.41 0.43 0.45 0.47 0.48 0.52 0.54 0.61 0.66 0.68 0.77 0.83 0.83 0.80 0.76 0.76 0.72 0.70 0.69 0.63 0.59 0.56 0.51 0.51 0.50 0.44 0.41 0.43 0.45 0.46 0.47 0.42 0.44 0.45 0.47 0.50 0.49 0.48 0.49 0.47 0.46 0.44
0.38 0.41 0.39 0.43 0.46 0.50 0.54 0.54 0.55 0.71 0.71 0.72 0.80 0.85 0.82 0.76 0.73 0.73 0.71 0.69 0.63 0.60 0.57 0.53 0.52 0.49 0.44 0.43 0.43 0.45 0.46 0.48 0.45 0.41 0.45 0.47 0.47 0.48 0.48 0.46 0.44 0.44 0.43
0.33 0.37 0.39 0.39 0.44 0.52 0.54 0.55 0.60 0.62 0.68 0.69 0.78 0.80 0.82 0.74 0.72 0.74 0.73 0.70 0.67 0.63 0.59 0.54 0.53 0.48 0.43 0.43 0.44 0.45 0.49 0.48 0.48 0.47 0.46 0.50 0.48 0.47 0.43 0.42 0.41 0.39 0.40
0.31 0.35 0.35 0.37 0.44 0.46 0.54 0.60 0.67 0.62 0.67 0.73 0.81 0.82 0.80 0.75 0.75 0.74 0.73 0.71 0.69 0.65 0.60 0.57 0.53 0.46 0.44 0.43 0.45 0.48 0.51 0.50 0.49 0.48 0.47 0.46 0.43 0.43 0.43 0.38 0.33 0.35 0.37
0.33 0.33 0.36 0.39 0.40 0.44 0.49 0.62 0.71 0.65 0.66 0.76 0.85 0.82 0.81 0.77 0.77 0.74 0.72 0.71 0.68 0.64 0.60 0.58 0.52 0.48 0.48 0.46 0.48 0.51 0.52 0.49 0.49 0.48 0.46 0.43 0.41 0.39 0.36 0.35 0.32 0.36 0.47
0.32 0.33 0.36 0.40 0.41 0.40 0.51 0.64 0.67 0.64 0.65 0.77 0.84 0.82 0.80 0.78 0.78 0.77 0.74 0.71 0.68 0.62 0.58 0.56 0.50 0.51 0.50 0.51 0.55 0.60 0.56 0.51 0.50 0.49 0.45 0.41 0.41 0.38 0.38 0.33 0.38 0.45 0.45
0.32 0.32 0.36 0.38 0.37 0.44 0.59 0.62 0.58 0.56 0.65 0.72 0.82 0.83 0.80 0.79 0.80 0.79 0.75 0.73 0.66 0.61 0.57 0.51 0.49 0.50 0.49 0.51 0.58 0.62 0.60 0.58 0.58 0.52 0.45 0.43 0.39 0.37 0.36 0.37 0.48 0.58 0.63
0.32 0.32 0.32 0.35 0.39 0.51 0.51 0.49 0.49 0.53 0.62 0.71 0.78 0.83 0.77 0.80 0.82 0.80 0.79 0.73 0.65 0.60 0.55 0.50 0.48 0.47 0.50 0.52 0.56 0.54 0.53 0.54 0.53 0.50 0.50 0.46 0.40 0.36 0.42 0.59 0.65 0.70 0.75
0.34 0.30 0.34 0.37 0.38 0.43 0.44 0.44 0.48 0.53 0.63 0.70 0.77 0.82 0.76 0.78 0.81 0.82 0.79 0.70 0.62 0.56 0.54 0.51 0.50 0.49 0.52 0.58 0.57 0.53 0.52 0.52 0.53 0.53 0.49 0.41 0.39 0.43 0.62 0.69 0.69 0.70 0.68
0.35 0.35 0.35 0.34 0.37 0.40 0.43 0.43 0.48 0.55 0.61 0.68 0.76 0.82 0.79 0.76 0.81 0.83 0.76 0.66 0.58 0.55 0.53 0.53 0.52 0.51 0.55 0.60 0.55 0.54 0.50 0.48 0.50 0.46 0.37 0.36 0.38 0.57 0.72 0.79 0.80 0.77 0.78
0.40 0.39 0.37 0.35 0.37 0.39 0.42 0.46 0.50 0.55 0.59 0.65 0.74 0.80 0.81 0.76 0.81 0.82 0.72 0.63 0.59 0.54 0.52 0.51 0.54 0.56 0.57 0.59 0.60 0.57 0.53 0.57 0.52 0.39 0.32 0.32 0.40 0.64 0.72 0.84 0.94 0.92 0.84
0.42 0.39 0.38 0.36 0.36 0.38 0.42 0.47 0.53 0.55 0.59 0.66 0.71 0.78 0.77 0.77 0.80 0.78 0.70 0.66 0.60 0.54 0.51 0.52 0.55 0.58 0.59 0.61 0.62 0.61 0.61 0.59 0.45 0.33 0.30 0.27 0.46 0.62 0.77 0.91 1.01 1.05 1.05
0.39 0.38 0.37 0.34 0.35 0.38 0.45 0.47 0.51 0.56 0.62 0.67 0.71 0.75 0.72 0.76 0.80 0.76 0.70 0.65 0.60 0.53 0.53 0.54 0.57 0.60 0.64 0.62 0.64 0.63 0.63 0.50 0.37 0.30 0.27 0.27 0.55 0.72 0.90 0.98 1.05 1.09 1.14
0.35 0.33 0.32 0.31 0.35 0.41 0.49 0.49 0.52 0.59 0.66 0.68 0.71 0.72 0.73 0.75 0.77 0.74 0.69 0.64 0.58 0.56 0.59 0.61 0.61 0.63 0.62 0.59 0.63 0.66 0.60 0.47 0.36 0.28 0.26 0.36 0.61 0.79 0.90 0.97 1.00 1.06 1.04
0.35 0.34 0.34 0.36 0.37 0.44 0.47 0.49 0.54 0.67 0.71 0.69 0.74 0.74 0.74 0.71 0.73 0.73 0.68 0.60 0.58 0.58 0.59 0.60 0.57 0.56 0.53 0.62 0.65 0.62 0.53 0.43 0.31 0.27 0.27 0.39 0.61 0.80 0.89 0.98 1.03 1.06 1.01
0.33 0.33 0.34 0.35 0.43 0.47 0.46 0.49 0.59 0.75 0.77 0.79 0.81 0.76 0.78 0.75 0.76 0.73 0.69 0.59 0.59 0.59 0.56 0.52 0.54 0.55 0.58 0.61 0.59 0.53 0.47 0.37 0.29 0.27 0.32 0.40 0.62 0.78 0.88 0.97 1.02 1.04 1.01
0.34 0.34 0.36 0.41 0.47 0.46 0.48 0.49 0.53 0.73 0.79 0.80 0.80 0.78 0.76 0.74 0.74 0.71 0.66 0.60 0.59 0.57 0.52 0.63 0.58 0.57 0.59 0.62 0.56 0.49 0.41 0.31 0.31 0.30 0.35 0.39 0.62 0.78 0.87 0.91 0.97 1.02 1.04
0.39 0.41 0.44 0.50 0.50 0.49 0.49 0.52 0.64 0.67 0.68 0.73 0.77 0.76 0.74 0.76 0.73 0.70 0.64 0.62 0.59 0.57 0.62 0.66 0.59 0.60 0.62 0.60 0.53 0.45 0.38 0.33 0.32 0.32 0.35 0.42 0.60 0.74 0.85 0.89 0.95 0.99 1.03
0.50 0.52 0.54 0.52 0.50 0.49 0.51 0.60 0.68 0.69 0.70 0.72 0.73 0.73 0.75 0.77 0.72 0.68 0.65 0.57 0.55 0.59 0.64 0.62 0.63 0.64 0.63 0.58 0.48 0.44 0.37 0.35 0.33 0.32 0.36 0.42 0.58 0.71 0.82 0.87 0.94 1.00 1.03
0.55 0.54 0.52 0.51 0.50 0.50 0.57 0.63 0.66 0.68 0.69 0.69 0.70 0.71 0.73 0.70 0.65 0.62 0.61 0.56 0.57 0.60 0.62 0.62 0.66 0.65 0.60 0.53 0.47 0.41 0.36 0.36 0.33 0.31 0.35 0.42 0.57 0.69 0.81 0.86 0.91 0.95 0.99
0.54 0.53 0.56 0.56 0.55 0.57 0.61 0.63 0.65 0.67 0.67 0.67 0.69 0.72 0.71 0.65 0.60 0.56 0.54 0.61 0.65 0.64 0.63 0.65 0.62 0.58 0.56 0.53 0.44 0.38 0.36 0.37 0.34 0.31 0.31 0.37 0.53 0.63 0.82 0.89 0.88 0.94 0.98
0.54 0.54 0.55 0.55 0.57 0.60 0.62 0.64 0.66 0.66 0.66 0.66 0.68 0.68 0.65 0.59 0.55 0.59 0.66 0.66 0.66 0.65 0.68 0.63 0.58 0.55 0.55 0.49 0.41 0.37 0.36 0.36 0.36 0.32 0.31 0.30 0.43 0.58 0.72 0.84 0.86 0.88 0.93
0.55 0.55 0.56 0.58 0.60 0.61 0.62 0.64 0.64 0.64 0.64 0.64 0.64 0.61 0.60 0.59 0.63 0.65 0.63 0.65 0.66 0.67 0.66 0.63 0.57 0.53 0.51 0.46 0.44 0.41 0.39 0.39 0.39 0.37 0.32 0.29 0.28 0.46 0.61 0.76 0.83 0.87 0.92
0.56 0.56 0.57 0.58 0.60 0.60 0.61 0.63 0.64 0.65 0.65 0.66 0.66 0.67 0.67 0.66 0.64 0.65 0.66 0.66 0.65 0.63 0.60 0.58 0.55 0.49 0.44 0.44 0.45 0.45 0.44 0.44 0.42 0.39 0.37 0.31 0.29 0.31 0.51 0.65 0.77 0.85 0.92
0.57 0.56 0.57 0.57 0.58 0.59 0.60 0.61 0.62 0.63 0.63 0.64 0.63 0.63 0.64 0.66 0.67 0.65 0.65 0.64 0.61 0.58 0.55 0.52 0.47 0.44 0.43 0.45 0.45 0.44 0.43 0.42 0.42 0.41 0.38 0.34 0.30 0.30 0.36 0.57 0.68 0.75 0.87
0.56 0.56 0.56 0.58 0.58 0.59 0.60 0.60 0.61 0.62 0.62 0.63 0.63 0.64 0.63 0.63 0.64 0.64 0.63 0.61 0.56 0.52 0.50 0.48 0.45 0.44 0.45 0.45 0.44 0.44 0.43 0.41 0.39 0.40 0.40 0.37 0.33 0.33 0.35 0.44 0.60 0.69 0.78